When you browse on this site, cookies collect data to enhance your experience and personalize the content and advertising you see.
Visit our Privacy Policy to learn more. By continuing to use the site, you agree to this use of cookies and data.
  • In Portugal
  • List of Countries
  • For 7 days
  • Water Temperature
  • Weather Map
  • Weather Widgets
  • user-avatar
    Login

    Hourly Weather Ndjbele

    Today, 2 April, Thursday

    Time Temperature Precipitation Wind Pressure Humidity
    00:00 +25°C° 0.1 mm 1 mps 715 mmHg 95%
    01:00 +25°C° 0.1 mm 1 mps 715 mmHg 96%
    02:00 +25°C° 0.1 mm 1 mps 714 mmHg 97%
    03:00 +25°C° 0 mm 1 mps 714 mmHg 96%
    04:00 +25°C° 0 mm 1 mps 714 mmHg 94%
    05:00 +25°C° 0 mm 1 mps 714 mmHg 93%
    06:00 +26°C° 0 mm 1 mps 715 mmHg 89%
    07:00 +27°C° 0 mm 1 mps 715 mmHg 84%
    08:00 +28°C° 0 mm 1 mps 716 mmHg 80%
    09:00 +28°C° 0 mm 1 mps 716 mmHg 77%
    10:00 +29°C° 0 mm 1 mps 716 mmHg 74%
    11:00 +30°C° 0 mm 1 mps 716 mmHg 71%
    12:00 +31°C° 0 mm 1 mps 715 mmHg 63%
    13:00 +33°C° 0 mm 1 mps 715 mmHg 55%
    14:00 +35°C° 0 mm 1 mps 714 mmHg 47%
    15:00 +33°C° 0.2 mm 1 mps 714 mmHg 53%
    16:00 +32°C° 0.2 mm 1 mps 714 mmHg 60%
    17:00 +31°C° 0.2 mm 1 mps 714 mmHg 66%
    18:00 +29°C° 0 mm 1 mps 714 mmHg 72%
    19:00 +28°C° 0 mm 1 mps 714 mmHg 78%
    20:00 +26°C° 0 mm 1 mps 715 mmHg 84%
    21:00 +26°C° 0 mm 1 mps 715 mmHg 87%
    22:00 +25°C° 0 mm 1 mps 715 mmHg 90%
    23:00 +25°C° 0 mm 1 mps 715 mmHg 93%

    Tomorrow, 3 April, Friday

    Time Temperature Precipitation Wind Pressure Humidity
    00:00 +24°C° 0 mm 1 mps 714 mmHg 95%
    01:00 +24°C° 0 mm 1 mps 714 mmHg 97%
    02:00 +24°C° 0 mm 1 mps 713 mmHg 98%
    03:00 +24°C° 0 mm 1 mps 714 mmHg 98%
    04:00 +22°C° 0 mm 0 mps 714 mmHg 98%
    05:00 +22°C° 0 mm 0 mps 714 mmHg 98%
    06:00 +25°C° 0 mm 1 mps 714 mmHg 94%
    07:00 +26°C° 0 mm 1 mps 715 mmHg 90%
    08:00 +26°C° 0 mm 1 mps 715 mmHg 86%
    09:00 +29°C° 0 mm 1 mps 715 mmHg 74%
    10:00 +31°C° 0 mm 1 mps 715 mmHg 63%
    11:00 +34°C° 0 mm 1 mps 715 mmHg 52%
    12:00 +34°C° 0 mm 1 mps 715 mmHg 51%
    13:00 +34°C° 0 mm 1 mps 714 mmHg 51%
    14:00 +34°C° 0 mm 1 mps 713 mmHg 50%
    15:00 +33°C° 0 mm 1 mps 713 mmHg 53%
    16:00 +33°C° 0 mm 1 mps 712 mmHg 55%
    17:00 +32°C° 0 mm 1 mps 712 mmHg 57%
    18:00 +31°C° 0 mm 1 mps 713 mmHg 65%
    19:00 +29°C° 0 mm 1 mps 713 mmHg 74%
    20:00 +27°C° 0 mm 1 mps 714 mmHg 83%
    21:00 +26°C° 0 mm 1 mps 714 mmHg 86%
    22:00 +26°C° 0 mm 1 mps 714 mmHg 90%
    23:00 +25°C° 0 mm 1 mps 714 mmHg 93%

    Day after tomorrow, 4 April, Saturday

    Time Temperature Precipitation Wind Pressure Humidity
    00:00 +25°C° 0 mm 1 mps 714 mmHg 94%
    01:00 +25°C° 0 mm 1 mps 714 mmHg 94%
    02:00 +25°C° 0 mm 1 mps 714 mmHg 95%
    03:00 +25°C° 0 mm 1 mps 714 mmHg 94%
    04:00 +25°C° 0 mm 1 mps 714 mmHg 94%
    05:00 +25°C° 0 mm 1 mps 714 mmHg 93%
    06:00 +26°C° 0.1 mm 1 mps 715 mmHg 92%
    07:00 +26°C° 0.1 mm 1 mps 715 mmHg 90%
    08:00 +26°C° 0.1 mm 1 mps 716 mmHg 89%
    09:00 +27°C° 0.1 mm 1 mps 716 mmHg 83%
    10:00 +28°C° 0.1 mm 1 mps 715 mmHg 77%
    11:00 +30°C° 0.1 mm 1 mps 715 mmHg 72%
    12:00 +31°C° 0 mm 1 mps 715 mmHg 66%
    13:00 +32°C° 0 mm 1 mps 714 mmHg 60%
    14:00 +34°C° 0 mm 1 mps 714 mmHg 54%
    15:00 +33°C° 0.1 mm 1 mps 714 mmHg 57%
    16:00 +32°C° 0.1 mm 1 mps 713 mmHg 60%
    17:00 +32°C° 0.1 mm 1 mps 713 mmHg 63%
    18:00 +30°C° 0 mm 1 mps 714 mmHg 70%
    19:00 +28°C° 0 mm 1 mps 714 mmHg 78%
    20:00 +26°C° 0 mm 1 mps 714 mmHg 85%
    21:00 +26°C° 0.1 mm 1 mps 714 mmHg 89%
    22:00 +26°C° 0.1 mm 1 mps 714 mmHg 92%
    23:00 +25°C° 0.1 mm 1 mps 714 mmHg 95%

    5 April, Sunday

    Time Temperature Precipitation Wind Pressure Humidity
    00:00 +25°C° 0 mm 1 mps 714 mmHg 96%
    01:00 +24°C° 0 mm 1 mps 714 mmHg 98%
    02:00 +24°C° 0 mm 1 mps 714 mmHg 99%
    03:00 +24°C° 0 mm 1 mps 714 mmHg 98%
    04:00 +22°C° 0 mm 0 mps 714 mmHg 98%
    05:00 +22°C° 0 mm 0 mps 714 mmHg 97%
    06:00 +23°C° 0 mm 0 mps 715 mmHg 92%
    07:00 +26°C° 0 mm 1 mps 716 mmHg 87%
    08:00 +27°C° 0 mm 1 mps 716 mmHg 82%
    09:00 +29°C° 0 mm 1 mps 716 mmHg 74%
    10:00 +31°C° 0 mm 1 mps 716 mmHg 67%
    11:00 +32°C° 0 mm 1 mps 716 mmHg 59%
    12:00 +32°C° 0.6 mm 1 mps 715 mmHg 62%
    13:00 +32°C° 0.6 mm 1 mps 715 mmHg 64%
    14:00 +32°C° 0.6 mm 1 mps 714 mmHg 66%
    15:00 +31°C° 1.8 mm 1 mps 714 mmHg 71%
    16:00 +30°C° 1.8 mm 1 mps 713 mmHg 76%
    17:00 +29°C° 1.8 mm 1 mps 713 mmHg 81%
    18:00 +28°C° 0 mm 1 mps 713 mmHg 85%
    19:00 +27°C° 0 mm 1 mps 714 mmHg 88%
    20:00 +26°C° 0 mm 1 mps 714 mmHg 92%
    21:00 +25°C° 0.2 mm 1 mps 715 mmHg 93%
    22:00 +25°C° 0.2 mm 1 mps 715 mmHg 94%
    23:00 +25°C° 0.2 mm 1 mps 715 mmHg 96%

    6 April, Monday

    Time Temperature Precipitation Wind Pressure Humidity
    00:00 +25°C° 0 mm 1 mps 714 mmHg 97%
    01:00 +24°C° 0 mm 1 mps 714 mmHg 98%
    02:00 +24°C° 0 mm 1 mps 714 mmHg 99%
    03:00 +24°C° 0 mm 1 mps 714 mmHg 99%
    04:00 +24°C° 0 mm 1 mps 714 mmHg 98%
    05:00 +22°C° 0 mm 0 mps 714 mmHg 98%
    06:00 +25°C° 0 mm 1 mps 715 mmHg 94%
    07:00 +26°C° 0 mm 1 mps 715 mmHg 91%
    08:00 +27°C° 0 mm 2 mps 716 mmHg 87%
    09:00 +28°C° 0 mm 1 mps 716 mmHg 81%
    10:00 +29°C° 0 mm 1 mps 715 mmHg 74%
    11:00 +31°C° 0 mm 1 mps 715 mmHg 68%
    12:00 +32°C° 0 mm 1 mps 715 mmHg 64%
    13:00 +33°C° 0 mm 1 mps 714 mmHg 59%
    14:00 +34°C° 0 mm 1 mps 714 mmHg 55%
    15:00 +33°C° 0 mm 1 mps 714 mmHg 58%
    16:00 +32°C° 0 mm 2 mps 713 mmHg 61%
    17:00 +32°C° 0 mm 2 mps 713 mmHg 63%
    18:00 +30°C° 2.7 mm 2 mps 714 mmHg 74%
    19:00 +27°C° 2.7 mm 2 mps 714 mmHg 84%
    20:00 +25°C° 2.7 mm 2 mps 715 mmHg 94%
    21:00 +24°C° 2.9 mm 1 mps 715 mmHg 94%
    22:00 +24°C° 2.9 mm 1 mps 715 mmHg 94%
    23:00 +23°C° 2.9 mm 1 mps 715 mmHg 93%

    7 April, Tuesday

    Time Temperature Precipitation Wind Pressure Humidity
    00:00 +23°C° 0.1 mm 1 mps 715 mmHg 94%
    01:00 +23°C° 0.1 mm 1 mps 714 mmHg 94%
    02:00 +21°C° 0.1 mm 0 mps 713 mmHg 94%
    03:00 +23°C° 0 mm 1 mps 713 mmHg 95%
    04:00 +23°C° 0 mm 1 mps 714 mmHg 95%
    05:00 +23°C° 0 mm 1 mps 714 mmHg 95%
    06:00 +24°C° 0 mm 1 mps 715 mmHg 90%
    07:00 +25°C° 0 mm 1 mps 715 mmHg 86%
    08:00 +26°C° 0 mm 1 mps 716 mmHg 81%
    09:00 +28°C° 0 mm 1 mps 716 mmHg 74%
    10:00 +30°C° 0 mm 1 mps 716 mmHg 66%
    11:00 +32°C° 0 mm 1 mps 716 mmHg 59%
    12:00 +32°C° 0 mm 1 mps 715 mmHg 57%
    13:00 +33°C° 0 mm 1 mps 715 mmHg 55%
    14:00 +33°C° 0 mm 1 mps 714 mmHg 53%
    15:00 +32°C° 0.1 mm 1 mps 714 mmHg 59%
    16:00 +29°C° 0.1 mm 0 mps 714 mmHg 64%
    17:00 +27°C° 0.1 mm 0 mps 713 mmHg 70%
    18:00 +26°C° 0 mm 0 mps 714 mmHg 74%
    19:00 +27°C° 0 mm 1 mps 714 mmHg 79%
    20:00 +26°C° 0 mm 1 mps 714 mmHg 83%
    21:00 +26°C° 0 mm 1 mps 714 mmHg 86%
    22:00 +26°C° 0 mm 1 mps 715 mmHg 89%
    23:00 +25°C° 0 mm 1 mps 715 mmHg 92%
    Show more